596  
ASUS43 KMKX 180021  
RWRWI  
 
WISCONSIN REGIONAL WEATHER ROUNDUP  
NATIONAL WEATHER SERVICE MILWAUKEE/SULLIVAN WI  
700 PM CDT TUE JUL 17 2018  
 
NOTE: "FAIR" INDICATES FEW OR NO CLOUDS BELOW 12,000 FEET WITH NO  
SIGNIFICANT WEATHER AND/OR S TO VISIBILITY
.  
 
WIZ001-002-006>008-014>016-023>028-180100-  
NORTHWEST WISCONSIN  
 
CITY SKY/WX TMP DP RH WIND PRES REMARKS
 
SUPERIOR ARPT FAIR 65 58 75 NE5 30.11S  
6HR MIN TEMP: 66; 6HR MAX TEMP: 74;  
 
ASHLAND FAIR 70 53 54 NE6 30.14S  
6HR MIN TEMP: 69; 6HR MAX TEMP: 74;  
 
HAYWARD FAIR 74 53 48 NE6 30.13S  
6HR MIN TEMP: 71; 6HR MAX TEMP: 77;  
 
SIREN FAIR 75 48 38 N3 30.12S  
6HR MIN TEMP: 72; 6HR MAX TEMP: 78;  
 
CUMBERLAND FAIR 72 50 46 CALM 30.13S  
RICE LAKE FAIR 74 52 47 NW3 30.13S  
6HR MIN TEMP: 71; 6HR MAX TEMP: 76;  
 
CHETEK FAIR 73 53 49 CALM 30.12S  
6HR MIN TEMP: 73; 6HR MAX TEMP: 77;  
 
LADYSMITH FAIR 73 53 48 N3 30.14F  
6HR MIN TEMP: 71; 6HR MAX TEMP: 76;  
 
EAU CLAIRE FAIR 77 51 40 N6 30.10S  
6HR MIN TEMP: 74; 6HR MAX TEMP: 80;  
 
MENOMONIE FAIR 77 48 36 N6 30.11S  
6HR MIN TEMP: 75; 6HR MAX TEMP: 80;  
 
NEW RICHMOND FAIR 75 49 40 NE3 30.12S  
6HR MIN TEMP: 73; 6HR MAX TEMP: 78;  
 
OSCEOLA FAIR 75 52 45 N3 30.14S  
6HR MIN TEMP: 74; 6HR MAX TEMP: 77;  
 

 
 
WIZ003>005-009-010-017-018-180100-  
NORTH CENTRAL WISCONSIN  
 
CITY SKY/WX TMP DP RH WIND PRES REMARKS
 
MANITOWISH WTR FAIR 67 48 49 NW5 30.15S  
6HR MIN TEMP: 66; 6HR MAX TEMP: 71;  
 
ARBOR VITAE FAIR 72 52 48 NW7 30.14S  
6HR MIN TEMP: 69; 6HR MAX TEMP: 73;  
 
WOODRUFF FAIR 72 52 48 NW7 30.14S  
6HR MIN TEMP: 69; 6HR MAX TEMP: 73;  
 
RHINELANDER FAIR 73 51 46 NE6 30.14S  
6HR MIN TEMP: 70; 6HR MAX TEMP: 76;  
 
EAGLE RIVER FAIR 68 47 47 N7 30.14S  
6HR MIN TEMP: 66; 6HR MAX TEMP: 72;  
 
LAND O LAKES FAIR 67 47 49 N5 30.16S  
6HR MIN TEMP: 67; 6HR MAX TEMP: 71;  
 
PHILLIPS FAIR 69 50 50 N8 30.14S  
6HR MIN TEMP: 68; 6HR MAX TEMP: 74;  
 
TOMAHAWK FAIR 70 50 50 CALM 30.13F  
6HR MIN TEMP: 68; 6HR MAX TEMP: 74;  
 
MEDFORD PTSUNNY 71 50 46 N5 30.12S  
6HR MIN TEMP: 69; 6HR MAX TEMP: 74;  
 
MERRILL FAIR 73 51 46 N3 30.12S  
6HR MIN TEMP: 70; 6HR MAX TEMP: 76;  
 

 
 
WIZ029-030-035-036-043>047-180100-  
CENTRAL WISCONSIN  
 
CITY SKY/WX TMP DP RH WIND PRES REMARKS
 
WAUSAU PTSUNNY 75 49 39 N8 30.09S  
6HR MIN TEMP: 73; 6HR MAX TEMP: 79;  
 
MOSINEE MOSUNNY 73 50 43 NW7 30.12S  
MARSHFIELD FAIR 75 51 43 NW9 30.11S  
6HR MIN TEMP: 73; 6HR MAX TEMP: 79;  
 
STEVENS POINT FAIR 74 49 41 N6 30.11R  
6HR MIN TEMP: 71; 6HR MAX TEMP: 76;  
 
WAUPACA FAIR 79 51 36 N5 30.09S  
6HR MIN TEMP: 78; 6HR MAX TEMP: 83;  
 
WAUTOMA FAIR 77 52 41 N6 30.08S  
6HR MIN TEMP: 76; 6HR MAX TEMP: 80;  
 
WISC RAPIDS FAIR 78 48 34 NW7 30.10S  
6HR MIN TEMP: 76; 6HR MAX TEMP: 81;  
 
CAMP DOUGLAS FAIR 77 53 43 NE5 30.09S  
6HR MIN TEMP: 76; 6HR MAX TEMP: 81;  
 

 
 
WIZ011>013-019>022-031-037>040-048>050-180100-  
NORTHEAST WISCONSIN  
 
CITY SKY/WX TMP DP RH WIND PRES REMARKS
 
ANTIGO PTSUNNY 69 52 54 NW5 30.13S  
6HR MIN TEMP: 69; 6HR MAX TEMP: 74;  
 
SHAWANO FAIR 75 53 44 N6 30.09S  
6HR MIN TEMP: 74; 6HR MAX TEMP: 78;  
 
OCONTO FAIR 69 57 64 E5 30.09S  
6HR MIN TEMP: 69; 6HR MAX TEMP: 75;  
 
STURGEON BAY FAIR 69 56 62 E7 30.11R  
6HR MIN TEMP: 68; 6HR MAX TEMP: 72;  
 
GREEN BAY FAIR 73 56 54 NE8 30.09S  
6HR MIN TEMP: 71; 6HR MAX TEMP: 77;  
 
MANITOWOC FAIR 67 56 67 E6 30.11S  
6HR MIN TEMP: 67; 6HR MAX TEMP: 72;  
 
APPLETON MOSUNNY 73 46 38 N6 30.08S  
CLINTONVILLE FAIR 75 51 42 E3 30.09S  
6HR MIN TEMP: 75; 6HR MAX TEMP: 80;  
 
OSHKOSH FAIR 75 56 51 NE7 30.07F  
6HR MIN TEMP: 74; 6HR MAX TEMP: 79;  
 

 
 
WIZ032>034-041-042-053>061-180100-  
SOUTHWEST WISCONSIN  
 
CITY SKY/WX TMP DP RH WIND PRES REMARKS
 
LA CROSSE FAIR 81 54 39 VRB5 30.08F HX 81  
6HR MIN TEMP: 78; 6HR MAX TEMP: 83;  
 
SPARTA FAIR 76 53 43 NW7 30.10S  
6HR MIN TEMP: 74; 6HR MAX TEMP: 79;  
 
VIROQUA FAIR 74 57 55 NW3 30.11S  
6HR MIN TEMP: 75; 6HR MAX TEMP: 78;  
 
BOSCOBEL FAIR 82 56 40 N5 30.08S HX 82  
6HR MIN TEMP: 82; 6HR MAX TEMP: 85;  
 
PRAIRIE DU CHI FAIR 78 53 41 NE5 30.07F  
6HR MIN TEMP: 78; 6HR MAX TEMP: 81;  
 
PLATTEVILLE FAIR 77 61 57 N6 30.09S  
6HR MIN TEMP: 77; 6HR MAX TEMP: 82;  
 

 
 
WIZ056-057-062-063-064-067-068-180100-  
SOUTH CENTRAL WISCONSIN  
 
CITY SKY/WX TMP DP RH WIND PRES REMARKS
 
REEDSBURG FAIR 77 52 41 N7 30.08F  
6HR MIN TEMP: 75; 6HR MAX TEMP: 80;  
 
BARABOO/DELLS FAIR 78 49 35 NW5 30.09S  
6HR MIN TEMP: 75; 6HR MAX TEMP: 81;  
 
LONE ROCK FAIR 80 55 42 N6 30.08S HX 80  
6HR MIN TEMP: 79; 6HR MAX TEMP: 83;  
 
MINERAL POINT FAIR 79 54 41 N6 30.09F  
MADISON FAIR 79 54 41 CALM 30.07S  
6HR MIN TEMP: 76; 6HR MAX TEMP: 81;  
 
MIDDLETON FAIR 78 55 44 N3 30.09S  
6HR MIN TEMP: 76; 6HR MAX TEMP: 81;  
 
WATERTOWN FAIR 75 55 50 E5 30.08S  
6HR MIN TEMP: 74; 6HR MAX TEMP: 79;  
 
MONROE FAIR 77 54 44 N6 30.09S  
6HR MIN TEMP: 77; 6HR MAX TEMP: 81;  
 
JANESVILLE SUNNY 79 52 38 VRB3 30.08S  

 
 
WIZ051-052-058>065-066-070>072-180100-  
SOUTHEAST WISCONSIN  
 
CITY SKY/WX TMP DP RH WIND PRES REMARKS
 
MILWAUKEE FAIR 70 59 68 NE10 30.10S  
6HR MIN TEMP: 70; 6HR MAX TEMP: 77;  
 
WAUKESHA SUNNY 70 57 64 NE10 30.11R  
MILWAUKEE/TIMM SUNNY 70 55 60 NE9 30.11S  
RACINE FAIR 71 60 68 NE13 30.11S  
6HR MIN TEMP: 71; 6HR MAX TEMP: 79; 6HR PCP: TRACE;  
 
BURLINGTON FAIR 72 59 64 E8 30.09S  
6HR MIN TEMP: 72; 6HR MAX TEMP: 80;  
 
KENOSHA FAIR 70 61 73 E9 30.10S  
6HR MIN TEMP: 70; 6HR MAX TEMP: 79;  
 
FOND DU LAC FAIR 76 53 44 N8 30.08F  
6HR MIN TEMP: 74; 6HR MAX TEMP: 78;  
 
SHEBOYGAN FAIR 68 56 65 E7 30.11R  
6HR MIN TEMP: 68; 6HR MAX TEMP: 77;  
 
WEST BEND FAIR 70 55 60 E8 30.10S  
JUNEAU FAIR 74 55 51 CALM 30.10R  
6HR MIN TEMP: 74; 6HR MAX TEMP: 77;  
 

 
 
LSZ147-162-180100-  
LAKE SUPERIOR  
 
STATION/POSITION TIME TEMP WIND PRES WAVE
 
AIR SEA DIR/SP/G HT/PER  
(UTC) (F) (DEG/KT/KT) (MB) (FT/S)  
W MID LAKE BUOY 2350 54 49 220/ 4/ 4 1020.6F 0  
DEVILS ISLAND 0000 65 140/ 6/ 8 1020.1F  
SAXON HARBOR 2340 70  
 
CLICK HERE TO GO TO PREVIOUS BULLETINS.

The Nexlab WI Page Main Text Page